Location: Hilton Head Island
(32.2163°N, 80.7526°W)
Time: 16:16:48
(UTC-05:00)

Explorer 11/Cluster Stage 4 - Pass Details

Date: 22 February 2026
Orbit: 463 x 1176 km, 28.8° (Epoch: 6 March)

Event Time Altitude Azimuth Distance (km) Brightness Sun altitude
Rises 09:40:32 0° 222° (SW) 3,680 10.0 30.4°
Reaches altitude 10° 09:43:58 10° 208° (SSW) 2,600 9.5 31.0°
Maximum altitude 09:48:37 22° 160° (SSE) 1,705 9.6 31.8°
Drops below altitude 10° 09:52:39 10° 110° (ESE) 2,217 10.2 32.4°
Sets 09:55:20 0° 94° (E) 3,009 10.3 32.9°
